Location: Aytr�
(46.1357°N, 1.1145°W)
Time: 22:13:30
(UTC+00:00)

Nauka - Pass Details

Date: 20 September 2021
Orbit: 417 x 423 km, 51.6° (Epoch: 16 October)

Event Time Altitude Azimuth Distance (km) Brightness Sun altitude
Rises 18:44:06 0° 235° (SW) 2,352 ? -7.4°
Reaches altitude 10° 18:46:11 10° 233° (SW) 1,492 ? -7.8°
Maximum altitude 18:49:31 70° 150° (SSE) 447 ? -8.4°
Drops below altitude 10° 18:52:52 10° 65° (ENE) 1,503 ? -8.9°
Enters shadow 18:53:11 - 65° (ENE) 1,630 ? -9.0°
